Location: Ballard
(38.3614°N, 94.1431°W)
Time: 02:47:27
(UTC-05:00)

N. Korean satellite - Visible Passes

Search period start: 14 October 2019 00:00
Search period end: 24 October 2019 00:00
Orbit: 455 x 508 km, 97.2° (Epoch: 13 October)

Date Brightness Start Highest point End Pass type
(mag) Time Alt. Az. Time Alt. Az. Time Alt. Az.
14 Oct 9.8 19:14:48 10° SW 19:17:17 19° W 19:19:47 10° NW visible
15 Oct 8.7 06:41:32 10° NNE 06:44:47 32° E 06:48:03 10° SSE visible
16 Oct 10.0 06:17:09 10° NE 06:19:23 16° E 06:21:38 10° SE visible
17 Oct 10.5 19:33:54 10° WSW 19:34:54 11° W 19:35:55 10° WNW visible
18 Oct 7.4 06:58:46 10° NNE 07:02:20 58° E 07:05:56 10° S visible
18 Oct 9.4 19:06:39 10° SSW 19:09:26 23° W 19:12:16 10° NW visible
19 Oct 9.2 06:33:53 10° NE 06:36:59 26° E 06:40:05 10° SSE visible
20 Oct 10.3 06:09:52 10° ENE 06:11:33 13° E 06:13:14 10° ESE visible
21 Oct 10.1 19:25:09 10° SW 19:27:01 14° W 19:28:54 10° WNW visible
22 Oct 8.0 06:51:00 10° NNE 06:54:31 45° E 06:58:03 10° S visible
22 Oct 8.8 18:58:32 10° SSW 19:01:33 30° W 19:04:38 10° NW visible
23 Oct 9.6 06:26:17 10° NE 06:29:08 21° E 06:31:59 10° SSE visible
